Regional Weather Roundup
Issued by NWS

Home | Current Version | Previous Version | Text Only | Print | Product List | Glossary On
Versions: 1 2 3 4 5 6 7 8 9 10 11 12 13 14 15 16 17 18 19 20 21 22 23 24 25 26 27 28 29 30 31 32 33 34 35 36 37 38 39 40 41 42 43 44 45 46 47 48 49 50
000
ASUS43 KFSD 022102
RWRSD

WEATHER ROUNDUP FOR SOUTH DAKOTA
NATIONAL WEATHER SERVICE SIOUX FALLS SD
400 PM CDT TUE JUN 02 2015

NOTE: "FAIR" INDICATES FEW OR NO CLOUDS BELOW 12,000 FEET WITH NO
SIGNIFICANT WEATHER AND/OR OBSTRUCTIONS TO VISIBILITY.


SDZ001>005-009-010-012>017-022200-
NORTHWEST AND NORTH CENTRAL SOUTH DAKOTA

CITY           SKY/WX    TMP DP  RH WIND       PRES   REMARKS
BUFFALO          N/A     77  55  46 W21       29.76F
FAITH            N/A     80  54  40 W14G22    29.77S
MOBRIDGE       MOSUNNY   86  62  44 W8G17     29.67F
$$

SDZ012>016-024>037-041>051-057-063-072>074-022200-
SOUTHWEST AND SOUTH CENTRAL SOUTH DAKOTA

CITY           SKY/WX    TMP DP  RH WIND       PRES   REMARKS
RAPID CTY ARPT MOSUNNY   81  59  47 NE10      29.82S
PIERRE         MOSUNNY   88  58  36 SW12G20   29.69F
CUSTER         SUNNY     80  31  16 VRB3      29.94F
ELLSWORTH AFB  MOSUNNY   80  58  46 N16       29.82S
PHILIP         SUNNY     86  58  38 NW9       29.75S
PINE RIDGE     MOSUNNY   83  57  41 CALM      29.81F
WINNER         FAIR      92  59  33 S18G25    29.75F
$$

SDZ004>011-016>023-039-040-022200-
NORTHEAST SOUTH DAKOTA

CITY           SKY/WX    TMP DP  RH WIND       PRES   REMARKS
ABERDEEN       SUNNY     84  61  45 S22G33    29.71F
WATERTOWN      MOSUNNY   79  61  53 S24G35    29.78F
BROOKINGS      MOSUNNY   77  61  57 S25G32    29.84F
SISSETON         N/A     83  61  47 S28G38    29.74F
$$

SDZ017-020-022-023-036>040-048>070-022200-
SOUTHEAST SOUTH DAKOTA

CITY           SKY/WX    TMP DP  RH WIND       PRES   REMARKS
SIOUX FALLS    PTSUNNY   77  62  59 S21G30    29.85F
HURON          SUNNY     84  60  44 S22G29    29.74F
CHAMBERLAIN    MOSUNNY   85  64  49 S20       29.74F
MITCHELL       SUNNY     84  61  45 S21       29.78F
YANKTON        SUNNY     81  61  50 S21       29.82F
$$

ABBREVIATIONS USED IN REMARKS
   TC - TEMPERATURE IN CELSIUS
  WCI - WIND CHILL INDEX
   HX - HEAT INDEX
  VSB - VISIBILITY



USA.gov is the U.S. government's official web portal to all federal, state and local government web resources and services.